Home   Weather   Lüneburg   Past weeks

Flag for Germany Past Weather in Lüneburg, Lower Saxony, Germany — Yesterday and Last 2 Weeks

Now
79 °F

Passing clouds.


Feels Like: 79 °F
Forecast: 54 / 72 °F
Wind: 7 mph from Southwest

Location: Fassberg

Current Time: Aug 31, 2016 at 6:11:00 PM

Latest Report: Aug 31, 2016 at 5:20 PM


Visibility: N/A

Pressure: 30.09 "Hg

Humidity: 30%

Dew Point: 45 °F

Location of LüneburgLocation

Past Weather in Lüneburg — Graph

°F

Lüneburg Temperature Yesterday

Maximum temperature yesterday: 70 °F (at 3:20 PM)
Minimum temperature yesterday: 45 °F (at 4:20 AM)
Average temperature yesterday: 58 °F

High & Low Weather Summary for the Past Weeks

 TemperatureHumidityPressure
High93 °F (Aug 26, 4:20 PM)100% (Aug 18, 6:20 AM)30.33 "Hg (Aug 18, 6:20 AM)
Low39 °F (Aug 17, 6:20 AM)24% (Aug 25, 4:20 PM)29.80 "Hg (Aug 20, 12:20 AM)
Average65 °F71%30.06 "Hg
* Reported Aug 16 4:20 PM — Aug 31 4:20 PM, Lüneburg, Weather by CustomWeather, © 2016

Note: Actual official high and low records may vary slightly from our data, if they occured in-between our weather recording intervals... More about our weather records

Advertising

Lüneburg Weather History for the Previous 24 Hours

Scroll right to see more
 ConditionsComfort  
Time TempWeatherWind HumidityBarometerVisibility
4:20 PM
Wed, Aug 31
79 °FPassing clouds.7 mph32%30.09 "HgN/A
3:20 PM79 °FPassing clouds.8 mph28%30.12 "HgN/A
2:20 PM79 °FPassing clouds.9 mph32%30.12 "HgN/A
1:20 PM75 °FScattered clouds.12 mph34%30.15 "HgN/A
12:20 PM73 °FPassing clouds.12 mph38%30.18 "HgN/A
11:20 AM72 °FPassing clouds.10 mph41%30.18 "HgN/A
10:20 AM70 °FPassing clouds.6 mph46%30.18 "HgN/A
9:20 AM63 °FPassing clouds.3 mph68%30.21 "HgN/A
8:20 AM54 °FPassing clouds.1 mph88%30.21 "HgN/A
7:20 AM48 °FFog.1 mph87%30.21 "HgN/A
6:20 AM46 °FFog.2 mph93%30.21 "HgN/A
5:20 AM46 °FFog.3 mph93%30.24 "HgN/A
4:20 AM46 °FCool.3 mph93%30.24 "HgN/A
3:20 AM48 °FCool.3 mph87%30.24 "HgN/A
2:20 AM48 °FCool.3 mph94%30.24 "HgN/A
1:20 AM48 °FCool.3 mph94%30.24 "HgN/A
12:20 AM50 °FCool.No wind94%30.27 "HgN/A
11:20 PM
Tue, Aug 30
52 °FCool.1 mph88%30.27 "HgN/A
10:20 PM54 °FCool.2 mph88%30.27 "HgN/A
9:20 PM57 °FFog.2 mph82%30.27 "HgN/A
8:20 PM63 °FPassing clouds.1 mph73%30.27 "HgN/A
7:20 PM70 °FPassing clouds.3 mph50%30.27 "HgN/A
6:20 PM70 °FScattered clouds.5 mph50%30.27 "HgN/A
Weather by CustomWeather, © 2016

See weather overviewHow to use our weather pages